#timestamp,LO_Frequency,Hit,StdDev 
1516118415.6,286046993.4,Y
1516118435.5,286046993.6,P
1516118455.3,286046991.7,P
1516118475.1,286046994.0,N
1516118495.9,286046997.2,N
1516118515.7,286046999.6,N
1516118535.5,286046998.6,N
1516118555.4,286046998.8,N
1516118575.2,286046998.3,N
1516118595.1,286046999.5,N
1516118596.0,286046999.5,N
1516118615.8,286046997.1,N
1516118635.6,286046996.7,N
1516118655.5,286046996.5,N
1516118675.3,286046995.2,N
1516118695.2,286046997.1,N
1516118715.9,286046996.8,N
1516118735.7,286046997.7,N
1516118755.6,286046996.9,N
1516118775.4,286046998.9,N
1516118795.2,286046998.3,N
1516118815.1,286046997.3,N
1516118816.0,286046997.3,N
1516118835.8,286046998.6,N
1516118855.7,286046998.7,N
1516118875.5,286046998.5,N
1516118895.3,286046999.5,N
1516118915.2,286046998.2,N
1516118935.0,286046998.6,N
1516118935.9,286046998.6,N
1516118955.7,286046998.7,N
1516118975.6,286046998.1,N
1516118995.4,286047000.9,N
1516119015.3,286047000.9,N
1516119035.1,286046999.1,N
1516119036.0,286046999.1,N
1516119055.8,286046997.3,N
1516119075.7,286046995.9,Y
1516119095.5,286046999.2,P
1516119115.4,286046996.9,P
1516119135.2,286046999.4,N
1516119155.0,286047000.9,N
1516119155.9,286047000.9,N
1516119175.8,286047001.2,N
1516119195.6,286046999.1,N
1516119215.4,286046999.3,N
1516119235.3,286046996.7,N
1516119255.1,286046996.2,N
1516119275.9,286046997.7,N
1516119295.7,286046994.9,Y
1516119315.5,286046995.8,P
1516119335.4,286046996.3,N
1516119355.2,286046995.4,P
1516119375.0,286046999.0,N
1516119376.0,286046999.0,N
1516119395.8,286046999.6,N
1516119415.6,286046999.4,N
1516119435.5,286046996.5,N
1516119455.3,286046998.2,N
1516119475.1,286047000.2,N
1516119495.9,286047002.1,N
1516119515.7,286046999.9,N
1516119535.6,286046999.8,N
1516119555.4,286047002.0,N
1516119575.2,286046999.8,N
1516119595.1,286047002.6,N
1516119596.0,286047002.6,N
1516119615.8,286047001.7,N
1516119635.6,286047002.6,N
1516119655.5,286046999.8,N
1516119675.3,286046998.5,N
1516119695.2,286046999.0,N
1516119715.9,286047000.9,N
1516119735.7,286047002.7,N
1516119755.6,286046999.9,N
1516119775.4,286047000.6,N
1516119795.2,286047000.1,N
1516119815.1,286046999.9,N
1516119816.0,286046999.9,N
1516119835.8,286047000.5,N
1516119855.7,286047001.8,N
1516119875.5,286047002.7,N
1516119895.3,286047002.3,N
1516119915.2,286047002.1,N
1516119935.0,286047002.0,N
1516119935.9,286047002.0,N
1516119955.8,286047000.3,N
1516119975.6,286046998.5,N
1516119995.4,286046997.2,N
1516120015.3,286046998.7,N
1516120035.1,286046998.9,N
1516120055.8,286046999.1,N
1516120075.7,286046998.7,N
1516120095.5,286046998.6,N
1516120115.4,286046997.6,N
1516120135.2,286046998.8,N
1516120155.0,286046996.9,N
1516120155.9,286046996.9,N
1516120175.8,286047000.5,N
1516120195.6,286047000.8,N
1516120215.4,286046997.0,N
1516120235.3,286046997.1,N
1516120255.1,286046996.7,N
1516120275.9,286046998.4,N
1516120295.7,286046998.8,N
1516120315.5,286046997.1,N
1516120335.4,286046997.5,N
1516120355.2,286046999.4,N
1516120375.1,286046998.5,N
1516120376.0,286046998.5,N
1516120395.8,286046998.7,N
1516120415.6,286046997.8,N
1516120435.5,286046996.5,N
1516120455.3,286046997.5,N
1516120475.1,286046997.1,N
1516120495.9,286046996.7,N
1516120515.7,286046999.4,N
1516120535.6,286046997.4,N
1516120555.4,286046999.1,N
1516120575.2,286046998.3,N
1516120595.1,286046998.5,N
1516120596.0,286046998.5,N
1516120615.8,286047002.2,N
1516120635.6,286047002.3,N
1516120655.5,286047000.7,N
1516120675.3,286046998.7,N
1516120695.2,286047001.0,N
1516120715.9,286047002.7,N
1516120735.7,286047000.8,N
1516120755.6,286046996.6,N
1516120775.4,286046997.5,N
1516120795.3,286046997.9,N
1516120815.1,286046997.2,N
1516120816.0,286046997.2,N
1516120835.8,286046998.9,N
1516120855.7,286047001.1,N
1516120875.5,286046998.6,N
1516120895.3,286047002.0,N
1516120915.2,286047001.5,N
1516120935.0,286047000.2,N
1516120935.9,286047000.2,N
1516120955.8,286047000.5,N
1516120975.6,286047000.3,N
1516120995.4,286047001.9,N
1516121015.3,286046999.7,N
1516121035.1,286046999.7,N
1516121055.8,286047002.6,N
1516121075.7,286047000.8,N
1516121095.5,286046999.0,N
1516121115.4,286046998.3,N
1516121135.2,286046996.5,N
1516121155.0,286046998.5,N
1516121155.9,286046998.5,N
1516121175.8,286046996.6,N
1516121195.6,286046996.5,N
1516121215.5,286047000.8,N
1516121235.3,286047001.0,N
1516121255.1,286047000.9,N
1516121275.9,286046998.6,N
1516121295.7,286047001.2,N
1516121315.5,286047000.5,N
1516121335.4,286047001.0,N
1516121355.2,286046998.7,N
1516121375.1,286046997.4,N
1516121376.0,286046997.4,N
1516121395.8,286046996.5,N
1516121415.6,286046999.5,N
1516121435.5,286046997.6,N
1516121455.3,286046999.3,N
1516121475.1,286046997.7,N
1516121495.9,286046997.7,N
1516121515.7,286046997.8,N
1516121535.6,286046997.8,N
1516121555.4,286046996.1,N
1516121575.2,286046996.1,N
1516121595.1,286046997.9,N
1516121596.0,286046997.9,N
1516121615.8,286046999.2,N
1516121635.7,286046999.2,N
1516121655.5,286046999.6,N
1516121675.3,286046997.9,N
1516121695.2,286046997.3,N
1516121715.9,286046995.7,N
1516121735.7,286046996.3,N
1516121755.6,286046994.2,Y
1516121775.4,286046996.4,P
1516121795.3,286046994.3,P
1516121815.1,286046994.6,P
1516121816.0,286046994.6,Y
1516121835.8,286046996.7,P
1516121855.7,286046998.7,P
1516121875.5,286046996.6,N
1516121895.3,286046997.5,N
1516121915.2,286046997.8,N
1516121935.0,286046998.8,N
1516121935.9,286046998.8,N
1516121955.8,286046998.8,N
1516121975.6,286047002.4,N
1516121995.4,286047002.1,N
